This is the latest recevied weather packets stored in our database for station/object N6WDO. If no packets are shown the sender has not sent any weather packets the latest 10 day(s).
| Time | Temp. | Humidity | Pressure | Rain* | Wind** | Luminosity | Snow |
|---|---|---|---|---|---|---|---|
| 1777218162 | 8.33° C | 99% | 1013.6 hPa | 4.83 mm | - | 89 W/m² | - |
| 1777217858 | 8.33° C | 99% | 1013.7 hPa | 4.83 mm | - | 61 W/m² | - |
| 1777217553 | 8.33° C | 99% | 1013.8 hPa | 3.05 mm | - | 38 W/m² | - |
| 1777217251 | 8.33° C | 99% | 1013.4 hPa | 0 mm | - | 31 W/m² | - |
| 1777216947 | 8.33° C | 99% | 1013.5 hPa | 0 mm | - | 33 W/m² | - |
| 1777216643 | 8.33° C | 99% | 1013.5 hPa | 0 mm | - | 36 W/m² | - |
| 1777216340 | 8.33° C | 99% | 1013.3 hPa | 0 mm | - | 44 W/m² | - |
| 1777216038 | 8.33° C | 99% | 1013.3 hPa | 0 mm | - | 47 W/m² | - |
| 1777215734 | 8.33° C | 99% | 1013.3 hPa | 0 mm | - | 42 W/m² | - |
| 1777215430 | 8.33° C | 99% | 1013.3 hPa | 0 mm | - | 35 W/m² | - |
| 1777215126 | 8.33° C | 99% | 1013.2 hPa | 0 mm | - | 40 W/m² | - |
| 1777214821 | 8.33° C | 99% | 1013.1 hPa | 0 mm | - | 58 W/m² | - |
| 1777214520 | 8.33° C | 99% | 1013.2 hPa | 0 mm | - | 61 W/m² | - |
| 1777214215 | 7.78° C | 99% | 1013 hPa | 0 mm | - | 76 W/m² | - |
| 1777213914 | 7.78° C | 99% | 1012.8 hPa | 0 mm | - | 75 W/m² | - |
| 1777213610 | 7.78° C | 99% | 1012.7 hPa | 0 mm | - | 52 W/m² | - |
| 1777213306 | 7.78° C | 99% | 1013 hPa | 0 mm | - | 36 W/m² | - |
| 1777213002 | 7.78° C | 99% | 1013 hPa | 0 mm | - | 38 W/m² | - |
| 1777212700 | 7.78° C | 99% | 1012.8 hPa | 0 mm | - | 32 W/m² | - |
| 1777212400 | 7.78° C | 99% | 1012.8 hPa | 0 mm | - | 28 W/m² | - |
| 1777212096 | 7.78° C | 99% | 1012.8 hPa | 0 mm | - | 29 W/m² | - |
| 1777211792 | 7.78° C | 99% | 1012.5 hPa | 0 mm | - | 29 W/m² | - |
| 1777211489 | 7.78° C | 99% | 1012.6 hPa | 0 mm | - | 25 W/m² | - |
| 1777211186 | 7.78° C | 99% | 1012.5 hPa | 0 mm | - | 17 W/m² | - |
| 1777210882 | 7.78° C | 99% | 1012.5 hPa | 0 mm | - | 12 W/m² | - |
* Rain latest hour (hover to see other rain measurements)
** Current wind speed in m/s (hover to see current wind gust speed)